Location: SE Lincoln, NE
(40.7805°N, 96.6275°W)
Time: 03:22:07
(UTC-05:00)

SJ 16-02 - Pass Details

Date: 15 May 2021
Orbit: 606 x 616 km, 75.0° (Epoch: 22 June)

Event Time Altitude Azimuth Distance (km) Brightness Sun altitude
Rises 22:02:34 0° 198° (SSW) 2,870 4.5 -14.2°
Reaches altitude 10° 22:04:48 10° 199° (SSW) 1,970 3.7 -14.5°
Maximum altitude 22:09:13 83° 288° (WNW) 626 1.4 -15.1°
Drops below altitude 10° 22:13:39 10° 16° (NNE) 1,985 4.3 -15.7°
Sets 22:15:55 0° 18° (NNE) 2,895 5.2 -16.0°
